AWC663 FSIA-LICC

Flight info

Callsign AWC663
Flight time N/A
Altitude 34000
Route PAOLO1C PAOLO DCT PRA UM651 KUSUB UG651 ALKOS G651 MURAL UM651 HARGA UR775 MANDA DCT SB UV790 ZULAC DCT IMLIL M559 JDW DCT LXR DCT KIVIL L613 MMA M855 RASNO DCT TIPAC DCT TISAL DCT PIMOR
Aircraft A21N/M-SDE2E3FGHIRWXY/LB1

Departure

Time 2026-04-23 08:05
Airport Seychelles International Airport (FSIA)

Arrival

Time N/A
Airport Catania-Fontanarossa Airport (LICC)
Time Latitude Longitude Altitude Speed Heading
2026-04-23 07:46 -4.67041 55.51164 28 ft 0 kts 215°
2026-04-23 07:59 -4.67022 55.51177 27 ft 4 kts 215°
2026-04-23 07:59 -4.67001 55.51192 29 ft 4 kts 216°
2026-04-23 07:59 -4.66989 55.51208 30 ft 4 kts 277°
2026-04-23 07:59 -4.67000 55.51229 29 ft 4 kts 310°
2026-04-23 08:00 -4.67013 55.51246 26 ft 1 kts 302°
2026-04-23 08:01 -4.67013 55.51244 26 ft 1 kts 302°
2026-04-23 08:02 -4.67002 55.51228 30 ft 4 kts 303°
2026-04-23 08:02 -4.66972 55.51199 26 ft 8 kts 331°
2026-04-23 08:02 -4.66909 55.51189 26 ft 11 kts 343°
2026-04-23 08:02 -4.66849 55.51130 27 ft 14 kts 304°
2026-04-23 08:03 -4.66794 55.51049 28 ft 14 kts 304°
2026-04-23 08:03 -4.66710 55.51046 26 ft 15 kts 36°
2026-04-23 08:03 -4.66688 55.51086 28 ft 8 kts 109°
2026-04-23 08:03 -4.66701 55.51110 28 ft 0 kts 124°
2026-04-23 08:04 -4.66734 55.51158 28 ft 34 kts 124°
2026-04-23 08:05 -4.67020 55.51574 27 ft 108 kts 124°
2026-04-23 08:05 -4.67564 55.52360 44 ft 161 kts 123°
2026-04-23 08:05 -4.68190 55.53287 636 ft 159 kts 126°
2026-04-23 08:05 -4.68825 55.54194 1208 ft 163 kts 121°
2026-04-23 08:06 -4.69215 55.55286 1749 ft 173 kts 98°
2026-04-23 08:06 -4.69098 55.56535 2116 ft 196 kts 72°
2026-04-23 08:06 -4.68248 55.57688 2569 ft 217 kts 42°
2026-04-23 08:06 -4.67014 55.58685 3027 ft 241 kts 40°
2026-04-23 08:07 -4.65623 55.59752 3513 ft 261 kts 32°
2026-04-23 08:07 -4.63884 55.60346 4214 ft 270 kts
2026-04-23 08:07 -4.61997 55.60432 5039 ft 273 kts
2026-04-23 08:07 -4.60086 55.60458 5845 ft 276 kts
2026-04-23 08:08 -4.58146 55.60494 6616 ft 279 kts
2026-04-23 08:08 -4.56216 55.60540 7348 ft 282 kts
2026-04-23 08:08 -4.54240 55.60597 8104 ft 285 kts
2026-04-23 08:08 -4.52240 55.60659 8865 ft 288 kts
2026-04-23 08:09 -4.50233 55.60843 9628 ft 292 kts 13°
2026-04-23 08:09 -4.48319 55.61576 10246 ft 300 kts 25°
2026-04-23 08:09 -4.46411 55.62570 10560 ft 319 kts 27°
2026-04-23 08:09 -4.44384 55.63652 10830 ft 338 kts 27°
2026-04-23 08:10 -4.42269 55.64770 11075 ft 357 kts 27°
2026-04-23 08:10 -4.40005 55.65949 11312 ft 374 kts 26°
2026-04-23 08:10 -4.35243 55.68303 12282 ft 386 kts 19°
2026-04-23 08:11 -4.32620 55.68882 12875 ft 388 kts
2026-04-23 08:11 -4.29937 55.68701 13456 ft 389 kts 347°
2026-04-23 08:11 -4.27391 55.67750 13963 ft 392 kts 331°
2026-04-23 08:11 -4.25179 55.66151 14444 ft 395 kts 320°
2026-04-23 08:12 -4.23092 55.64337 14893 ft 398 kts 319°
2026-04-23 08:12 -4.20991 55.62502 15375 ft 401 kts 320°
2026-04-23 08:12 -4.18888 55.60701 15822 ft 404 kts 320°
2026-04-23 08:12 -4.16712 55.58856 16266 ft 406 kts 320°
2026-04-23 08:13 -4.14604 55.57069 16699 ft 409 kts 320°
2026-04-23 08:13 -4.12408 55.55239 17130 ft 412 kts 321°
2026-04-23 08:13 -4.10189 55.53406 17542 ft 414 kts 321°
2026-04-23 08:13 -4.07957 55.51552 17957 ft 417 kts 321°
2026-04-23 08:14 -4.05717 55.49681 18336 ft 420 kts 320°
2026-04-23 08:14 -4.03487 55.47805 18693 ft 422 kts 320°
2026-04-23 08:14 -4.01233 55.45909 19060 ft 425 kts 321°
2026-04-23 08:14 -3.98954 55.43999 19431 ft 427 kts 320°
2026-04-23 08:15 -3.96675 55.42077 19799 ft 429 kts 320°
2026-04-23 08:15 -3.94400 55.40129 20174 ft 431 kts 320°
2026-04-23 08:15 -3.92127 55.38207 20548 ft 433 kts 320°
2026-04-23 08:15 -3.89818 55.36253 20926 ft 436 kts 320°
2026-04-23 08:16 -3.87497 55.34284 21310 ft 438 kts 320°
2026-04-23 08:16 -3.85162 55.32313 21707 ft 440 kts 321°
2026-04-23 08:16 -3.82801 55.30334 22109 ft 443 kts 321°
2026-04-23 08:16 -3.80449 55.28373 22497 ft 445 kts 321°
2026-04-23 08:17 -3.78052 55.26387 22870 ft 448 kts 321°
2026-04-23 08:17 -3.75636 55.24401 23243 ft 449 kts 321°
2026-04-23 08:17 -3.73218 55.22392 23551 ft 452 kts 321°
2026-04-23 08:17 -3.70802 55.20375 23819 ft 454 kts 321°
2026-04-23 08:18 -3.68370 55.18340 24088 ft 456 kts 321°
2026-04-23 08:18 -3.65928 55.16291 24360 ft 458 kts 321°
2026-04-23 08:18 -3.63514 55.14264 24632 ft 459 kts 321°
2026-04-23 08:18 -3.61053 55.12200 24903 ft 461 kts 321°
2026-04-23 08:19 -3.58589 55.10136 25169 ft 463 kts 321°
2026-04-23 08:19 -3.56115 55.08063 25434 ft 464 kts 321°
2026-04-23 08:19 -3.53632 55.05978 25692 ft 466 kts 321°
2026-04-23 08:19 -3.51143 55.03883 25943 ft 468 kts 321°
2026-04-23 08:20 -3.48641 55.01787 26189 ft 469 kts 321°
2026-04-23 08:20 -3.46140 54.99693 26464 ft 470 kts 321°
2026-04-23 08:20 -3.43632 54.97595 26799 ft 469 kts 321°
2026-04-23 08:20 -3.41162 54.95526 27103 ft 468 kts 321°
2026-04-23 08:21 -3.38672 54.93420 27416 ft 468 kts 320°
2026-04-23 08:21 -3.36186 54.91315 27737 ft 467 kts 321°
2026-04-23 08:21 -3.33694 54.89218 28055 ft 467 kts 321°
2026-04-23 08:21 -3.31207 54.87128 28375 ft 466 kts 321°
2026-04-23 08:22 -3.28720 54.85048 28692 ft 465 kts 321°
2026-04-23 08:22 -3.26239 54.82963 29025 ft 464 kts 321°
2026-04-23 08:22 -3.23768 54.80880 29353 ft 464 kts 321°
2026-04-23 08:22 -3.21315 54.78831 29678 ft 463 kts 321°
2026-04-23 08:23 -3.18847 54.76764 29997 ft 462 kts 321°
2026-04-23 08:23 -3.16373 54.74707 30278 ft 461 kts 321°
2026-04-23 08:23 -3.13911 54.72646 30585 ft 460 kts 321°
2026-04-23 08:23 -3.11462 54.70593 30879 ft 459 kts 321°
2026-04-23 08:24 -3.09015 54.68542 31165 ft 458 kts 321°
2026-04-23 08:24 -3.06569 54.66496 31446 ft 457 kts 321°
2026-04-23 08:24 -3.04127 54.64464 31739 ft 456 kts 321°
2026-04-23 08:24 -3.01716 54.62456 32034 ft 455 kts 321°
2026-04-23 08:25 -2.99288 54.60430 32306 ft 454 kts 321°
2026-04-23 08:25 -2.96859 54.58402 32583 ft 453 kts 321°
2026-04-23 08:25 -2.94443 54.56381 32848 ft 452 kts 321°
2026-04-23 08:25 -2.92029 54.54360 33111 ft 451 kts 321°
2026-04-23 08:26 -2.89653 54.52365 33369 ft 450 kts 320°
2026-04-23 08:26 -2.87257 54.50347 33624 ft 449 kts 320°
2026-04-23 08:26 -2.84858 54.48337 33850 ft 449 kts 321°
2026-04-23 08:26 -2.82462 54.46334 33902 ft 448 kts 321°
2026-04-23 08:27 -2.77668 54.42333 33873 ft 448 kts 321°
2026-04-23 08:27 -2.72878 54.38335 33860 ft 448 kts 321°
2026-04-23 08:28 -2.68123 54.34356 33860 ft 448 kts 321°
2026-04-23 08:28 -2.63339 54.30352 33855 ft 448 kts 321°
2026-04-23 08:29 -2.58557 54.26348 33859 ft 448 kts 321°
2026-04-23 08:29 -2.53806 54.22374 33857 ft 447 kts 321°
2026-04-23 08:30 -2.49060 54.18350 33859 ft 447 kts 321°
2026-04-23 08:30 -2.44280 54.14363 33860 ft 447 kts 321°
2026-04-23 08:31 -2.39526 54.10390 33859 ft 447 kts 321°
2026-04-23 08:31 -2.34753 54.06393 33859 ft 447 kts 321°
2026-04-23 08:32 -2.29987 54.02389 33863 ft 447 kts 321°
2026-04-23 08:32 -2.25211 53.98406 33860 ft 447 kts 321°
2026-04-23 08:33 -2.20448 53.94406 33862 ft 447 kts 321°
2026-04-23 08:33 -2.15707 53.90440 33861 ft 446 kts 321°
2026-04-23 08:34 -2.10931 53.86454 33858 ft 446 kts 321°
2026-04-23 08:34 -2.06160 53.82467 33856 ft 446 kts 321°
2026-04-23 08:35 -2.01410 53.78503 33853 ft 446 kts 321°
2026-04-23 08:35 -1.96665 53.74541 33860 ft 446 kts 321°
2026-04-23 08:36 -1.91894 53.70550 33855 ft 447 kts 321°
2026-04-23 08:36 -1.87123 53.66568 33856 ft 447 kts 321°
2026-04-23 08:37 -1.82359 53.62574 33856 ft 446 kts 321°
2026-04-23 08:37 -1.77615 53.58610 33856 ft 446 kts 321°
2026-04-23 08:38 -1.72813 53.54619 33853 ft 446 kts 321°
2026-04-23 08:38 -1.68083 53.50657 33855 ft 446 kts 321°
2026-04-23 08:39 -1.63294 53.46670 33857 ft 446 kts 321°
2026-04-23 08:39 -1.58555 53.42716 33855 ft 446 kts 321°
2026-04-23 08:40 -1.53791 53.38728 33857 ft 446 kts 321°
2026-04-23 08:40 -1.49013 53.34748 33849 ft 446 kts 321°
2026-04-23 08:41 -1.44263 53.30806 33852 ft 446 kts 321°
2026-04-23 08:41 -1.39504 53.26815 33854 ft 446 kts 320°
2026-04-23 08:42 -1.34746 53.22816 33853 ft 446 kts 321°
2026-04-23 08:42 -1.29991 53.18868 33851 ft 447 kts 321°
2026-04-23 08:43 -1.25186 53.14868 33851 ft 447 kts 321°
2026-04-23 08:43 -1.20470 53.10885 33848 ft 447 kts 320°
2026-04-23 08:44 -1.15721 53.06869 33849 ft 446 kts 321°
2026-04-23 08:44 -1.10962 53.02885 33850 ft 446 kts 321°
2026-04-23 08:45 -1.06165 52.98927 33850 ft 446 kts 321°
2026-04-23 08:45 -1.01429 52.94979 33851 ft 446 kts 320°
2026-04-23 08:46 -0.96660 52.90992 33855 ft 446 kts 321°
2026-04-23 08:46 -0.91884 52.87034 33854 ft 446 kts 321°
2026-04-23 08:47 -0.87912 52.83721 33853 ft 447 kts 321°
2026-04-23 08:47 -0.82365 52.79085 33852 ft 447 kts 321°
2026-04-23 08:48 -0.78369 52.75744 33850 ft 446 kts 321°
2026-04-23 08:48 -0.73631 52.71793 33852 ft 446 kts 321°
2026-04-23 08:49 -0.68859 52.67805 33846 ft 446 kts 321°
2026-04-23 08:49 -0.64094 52.63827 33850 ft 446 kts 321°
2026-04-23 08:50 -0.59331 52.59845 33853 ft 446 kts 321°
2026-04-23 08:50 -0.54589 52.55885 33855 ft 446 kts 321°
2026-04-23 08:51 -0.49833 52.51917 33849 ft 446 kts 321°
2026-04-23 08:51 -0.45075 52.47938 33853 ft 446 kts 321°
2026-04-23 08:52 -0.40316 52.43963 33852 ft 446 kts 321°
2026-04-23 08:52 -0.35554 52.39984 33853 ft 445 kts 321°
2026-04-23 08:53 -0.30831 52.36032 33854 ft 445 kts 321°
2026-04-23 08:53 -0.26061 52.32053 33850 ft 446 kts 321°
2026-04-23 08:54 -0.21300 52.28088 33856 ft 445 kts 321°
2026-04-23 08:54 -0.16565 52.24134 33852 ft 446 kts 321°
2026-04-23 08:55 -0.11803 52.20154 33849 ft 446 kts 321°
2026-04-23 08:55 -0.07045 52.16178 33856 ft 446 kts 321°
2026-04-23 08:56 -0.02286 52.12203 33856 ft 446 kts 321°
2026-04-23 08:56 0.02481 52.08230 33846 ft 447 kts 321°
2026-04-23 08:57 0.07230 52.04266 33847 ft 447 kts 320°
2026-04-23 08:57 0.11995 52.00281 33853 ft 447 kts 321°
2026-04-23 08:58 0.16747 51.96270 33857 ft 447 kts 320°
2026-04-23 08:58 0.21511 51.92271 33853 ft 447 kts 320°
2026-04-23 08:59 0.26281 51.88279 33856 ft 447 kts 320°
2026-04-23 08:59 0.31037 51.84311 33854 ft 447 kts 321°
2026-04-23 09:00 0.35824 51.80359 33860 ft 446 kts 321°
2026-04-23 09:00 0.40611 51.76386 33859 ft 446 kts 320°
2026-04-23 09:01 0.45385 51.72392 33855 ft 447 kts 320°
2026-04-23 09:01 0.50123 51.68435 33855 ft 447 kts 320°
2026-04-23 09:02 0.54900 51.64449 33851 ft 447 kts 320°
2026-04-23 09:02 0.59646 51.60484 33857 ft 447 kts 320°
2026-04-23 09:03 0.64424 51.56484 33854 ft 447 kts 320°
2026-04-23 09:03 0.69172 51.52518 33857 ft 446 kts 320°
2026-04-23 09:04 0.73947 51.48536 33857 ft 446 kts 320°
2026-04-23 09:04 0.78679 51.44582 33863 ft 446 kts 320°
2026-04-23 09:05 0.83441 51.40608 33857 ft 446 kts 320°
2026-04-23 09:05 0.88208 51.36618 33859 ft 446 kts 320°
2026-04-23 09:06 0.92943 51.32666 33858 ft 445 kts 320°
2026-04-23 09:06 0.97697 51.28696 33859 ft 445 kts 320°
2026-04-23 09:07 1.02456 51.24724 33862 ft 445 kts 320°
2026-04-23 09:07 1.07178 51.20761 33856 ft 445 kts 320°
2026-04-23 09:08 1.11918 51.16772 33860 ft 445 kts 320°
2026-04-23 09:08 1.16686 51.12799 33857 ft 445 kts 320°
2026-04-23 09:09 1.21397 51.08838 33863 ft 445 kts 320°
2026-04-23 09:09 1.26144 51.04865 33861 ft 445 kts 320°
2026-04-23 09:10 1.33284 50.98909 33860 ft 445 kts 320°
2026-04-23 09:11 1.38035 50.94931 33866 ft 445 kts 320°
2026-04-23 09:11 1.42748 50.90983 33866 ft 445 kts 320°
2026-04-23 09:12 1.47493 50.87022 33866 ft 445 kts 320°
2026-04-23 09:12 1.52259 50.83049 33867 ft 444 kts 320°
2026-04-23 09:13 1.57013 50.79087 33862 ft 444 kts 320°
2026-04-23 09:13 1.61756 50.75111 33860 ft 444 kts 320°
2026-04-23 09:14 1.66471 50.71180 33858 ft 444 kts 320°
2026-04-23 09:14 1.71235 50.67199 33866 ft 444 kts 320°
2026-04-23 09:15 1.75956 50.63254 33868 ft 444 kts 320°
2026-04-23 09:15 1.80706 50.59296 33864 ft 444 kts 320°
2026-04-23 09:16 1.85448 50.55315 33863 ft 444 kts 320°
2026-04-23 09:16 1.90189 50.51335 33857 ft 444 kts 320°
2026-04-23 09:17 1.94911 50.47381 33868 ft 444 kts 320°
2026-04-23 09:17 1.99626 50.43430 33863 ft 444 kts 320°
2026-04-23 09:18 2.04376 50.39467 33867 ft 444 kts 320°
2026-04-23 09:18 2.09152 50.35522 33868 ft 444 kts 320°
2026-04-23 09:19 2.13889 50.31561 33864 ft 444 kts 320°
2026-04-23 09:19 2.18607 50.27618 33856 ft 444 kts 320°
2026-04-23 09:20 2.23350 50.23646 33857 ft 444 kts 320°
2026-04-23 09:20 2.28096 50.19674 33858 ft 444 kts 320°
2026-04-23 09:21 2.32837 50.15705 33858 ft 444 kts 320°
2026-04-23 09:21 2.37587 50.11731 33866 ft 445 kts 320°
2026-04-23 09:22 2.42303 50.07776 33869 ft 445 kts 320°
2026-04-23 09:22 2.47055 50.03798 33870 ft 445 kts 320°
2026-04-23 09:23 2.51809 49.99824 33869 ft 445 kts 320°
2026-04-23 09:23 2.56567 49.95842 33870 ft 445 kts 320°
2026-04-23 09:24 2.61317 49.91860 33863 ft 445 kts 320°
2026-04-23 09:24 2.66011 49.87883 33873 ft 445 kts 319°
2026-04-23 09:25 2.70750 49.83879 33865 ft 445 kts 320°
2026-04-23 09:25 2.75601 49.80007 33866 ft 445 kts 321°
2026-04-23 09:26 2.80462 49.76157 33868 ft 445 kts 321°
2026-04-23 09:26 2.85299 49.72329 33869 ft 445 kts 321°
2026-04-23 09:27 2.90164 49.68463 33866 ft 445 kts 321°
2026-04-23 09:27 2.95021 49.64618 33867 ft 445 kts 321°
2026-04-23 09:28 2.99873 49.60761 33867 ft 445 kts 321°
2026-04-23 09:28 3.04714 49.56914 33860 ft 445 kts 321°
2026-04-23 09:29 3.09537 49.53082 33866 ft 445 kts 321°
2026-04-23 09:29 3.14392 49.49224 33864 ft 445 kts 321°
2026-04-23 09:30 3.19257 49.45380 33869 ft 445 kts 321°
2026-04-23 09:30 3.24075 49.41551 33867 ft 445 kts 321°
2026-04-23 09:31 3.28915 49.37683 33870 ft 445 kts 321°
2026-04-23 09:31 3.33784 49.33837 33868 ft 445 kts 321°
2026-04-23 09:32 3.38605 49.29999 33867 ft 445 kts 321°
2026-04-23 09:32 3.43455 49.26138 33870 ft 445 kts 321°
2026-04-23 09:33 3.48320 49.22302 33867 ft 445 kts 321°
2026-04-23 09:33 3.53203 49.18500 33862 ft 445 kts 321°
2026-04-23 09:34 3.58064 49.14650 33862 ft 444 kts 320°
2026-04-23 09:34 3.62907 49.10801 33871 ft 445 kts 321°
2026-04-23 09:35 3.67724 49.06978 33871 ft 445 kts 321°
2026-04-23 09:35 3.71781 49.03748 33875 ft 444 kts 321°
2026-04-23 09:36 3.76597 48.99915 33872 ft 444 kts 321°
2026-04-23 09:36 3.81456 48.96069 33870 ft 444 kts 321°
2026-04-23 09:37 3.86286 48.92214 33868 ft 444 kts 321°
2026-04-23 09:37 3.91116 48.88382 33862 ft 444 kts 321°
2026-04-23 09:38 3.95945 48.84508 33867 ft 444 kts 320°
2026-04-23 09:38 4.00784 48.80649 33866 ft 444 kts 321°
2026-04-23 09:39 4.05621 48.76830 33877 ft 444 kts 321°
2026-04-23 09:39 4.10463 48.72979 33872 ft 444 kts 320°
2026-04-23 09:40 4.15296 48.69119 33862 ft 444 kts 321°
2026-04-23 09:40 4.20151 48.65277 33861 ft 444 kts 321°
2026-04-23 09:41 4.24960 48.61440 33863 ft 444 kts 321°
2026-04-23 09:41 4.29798 48.57569 33870 ft 444 kts 320°
2026-04-23 09:42 4.34635 48.53694 33859 ft 444 kts 320°
2026-04-23 09:42 4.39469 48.49823 33865 ft 444 kts 320°
2026-04-23 09:43 4.44265 48.45974 33859 ft 444 kts 320°
2026-04-23 09:43 4.49102 48.42095 33858 ft 443 kts 320°
2026-04-23 09:44 4.53923 48.38246 33867 ft 443 kts 320°
2026-04-23 09:44 4.58719 48.34399 33864 ft 443 kts 320°
2026-04-23 09:45 4.63518 48.30557 33863 ft 443 kts 320°
2026-04-23 09:45 4.68351 48.26689 33865 ft 443 kts 320°
2026-04-23 09:46 4.73163 48.22823 33861 ft 443 kts 320°
2026-04-23 09:46 4.77996 48.18963 33865 ft 443 kts 320°
2026-04-23 09:47 4.82775 48.15129 33856 ft 443 kts 320°
2026-04-23 09:47 4.87596 48.11248 33863 ft 443 kts 320°
2026-04-23 09:48 4.92419 48.07395 33851 ft 443 kts 320°
2026-04-23 09:48 4.97246 48.03527 33849 ft 443 kts 320°
2026-04-23 09:49 5.02028 47.99686 33856 ft 443 kts 320°
2026-04-23 09:49 5.06854 47.95826 33856 ft 443 kts 320°
2026-04-23 09:50 5.11647 47.91933 33843 ft 442 kts 320°
2026-04-23 09:50 5.16446 47.88053 33830 ft 442 kts 320°
2026-04-23 09:51 5.21258 47.84180 33836 ft 442 kts 320°
2026-04-23 09:51 5.26039 47.80345 33831 ft 442 kts 320°
2026-04-23 09:52 5.30860 47.76479 33821 ft 442 kts 320°
2026-04-23 09:52 5.35644 47.72649 33824 ft 442 kts 321°
2026-04-23 09:53 5.40463 47.68829 33830 ft 441 kts 321°
2026-04-23 09:53 5.45253 47.64978 33831 ft 440 kts 320°
2026-04-23 09:54 5.50043 47.61134 33826 ft 440 kts 320°
2026-04-23 09:54 5.54797 47.57315 33824 ft 441 kts 320°
2026-04-23 09:55 5.59596 47.53461 33829 ft 441 kts 320°
2026-04-23 09:55 5.64386 47.49607 33828 ft 439 kts 320°
2026-04-23 09:56 5.69139 47.45811 33833 ft 439 kts 320°
2026-04-23 09:56 5.73942 47.42003 33826 ft 439 kts 320°
2026-04-23 09:57 5.78747 47.38196 33824 ft 439 kts 320°
2026-04-23 09:57 5.83565 47.34391 33830 ft 440 kts 320°
2026-04-23 09:58 5.88372 47.30575 33834 ft 440 kts 320°
2026-04-23 09:58 5.93141 47.26788 33824 ft 440 kts 320°
2026-04-23 09:59 5.97958 47.22974 33830 ft 440 kts 320°
2026-04-23 09:59 6.02755 47.19133 33827 ft 440 kts 320°
2026-04-23 10:00 6.07569 47.15313 33827 ft 441 kts 320°
2026-04-23 10:00 6.12372 47.11509 33831 ft 441 kts 320°
2026-04-23 10:01 6.17161 47.07674 33825 ft 439 kts 320°
2026-04-23 10:01 6.21961 47.03865 33835 ft 439 kts 320°
2026-04-23 10:02 6.26749 47.00060 33834 ft 439 kts 320°
2026-04-23 10:02 6.31542 46.96250 33835 ft 439 kts 320°
2026-04-23 10:03 6.36342 46.92448 33830 ft 439 kts 320°
2026-04-23 10:03 6.41106 46.88648 33829 ft 438 kts 320°
2026-04-23 10:04 6.45895 46.84838 33825 ft 438 kts 320°
2026-04-23 10:04 6.50681 46.81042 33834 ft 438 kts 320°
2026-04-23 10:05 6.55470 46.77238 33832 ft 438 kts 320°
2026-04-23 10:05 6.60257 46.73424 33827 ft 438 kts 320°
2026-04-23 10:06 6.65020 46.69639 33838 ft 439 kts 320°
2026-04-23 10:06 6.69756 46.65741 33836 ft 439 kts 316°
2026-04-23 10:07 6.74272 46.61594 33840 ft 439 kts 316°
2026-04-23 10:07 6.78782 46.57444 33837 ft 439 kts 316°
2026-04-23 10:08 6.83271 46.53333 33838 ft 439 kts 316°
2026-04-23 10:08 6.87787 46.49195 33840 ft 439 kts 316°
2026-04-23 10:09 6.94596 46.42949 33829 ft 442 kts 316°
2026-04-23 10:09 6.99166 46.38789 33830 ft 442 kts 316°
2026-04-23 10:10 7.03717 46.34608 33836 ft 442 kts 316°
2026-04-23 10:10 7.08220 46.30447 33828 ft 442 kts 316°
2026-04-23 10:11 7.12756 46.26267 33832 ft 442 kts 316°
2026-04-23 10:11 7.17332 46.22069 33838 ft 445 kts 317°
2026-04-23 10:12 7.21903 46.17903 33842 ft 446 kts 317°
2026-04-23 10:12 7.26501 46.13691 33832 ft 445 kts 316°
2026-04-23 10:13 7.31073 46.09477 33829 ft 445 kts 316°
2026-04-23 10:13 7.35635 46.05292 33832 ft 445 kts 316°
2026-04-23 10:14 7.40221 46.01079 33840 ft 446 kts 316°
2026-04-23 10:14 7.44795 45.96866 33846 ft 446 kts 316°
2026-04-23 10:15 7.49383 45.92636 33842 ft 446 kts 316°
2026-04-23 10:15 7.53968 45.88416 33847 ft 446 kts 316°
2026-04-23 10:16 7.58513 45.84229 33842 ft 446 kts 316°
2026-04-23 10:16 7.63095 45.80012 33843 ft 445 kts 316°
2026-04-23 10:17 7.67671 45.75792 33843 ft 445 kts 316°
2026-04-23 10:17 7.72256 45.71590 33848 ft 445 kts 316°
2026-04-23 10:18 7.76799 45.67413 33847 ft 445 kts 316°
2026-04-23 10:18 7.81378 45.63201 33848 ft 445 kts 316°
2026-04-23 10:19 7.85948 45.58994 33850 ft 445 kts 316°
2026-04-23 10:19 7.90513 45.54809 33853 ft 443 kts 316°
2026-04-23 10:20 7.95062 45.50617 33858 ft 443 kts 316°
2026-04-23 10:20 7.99587 45.46445 33854 ft 443 kts 316°
2026-04-23 10:21 8.04135 45.42256 33849 ft 443 kts 316°
2026-04-23 10:21 8.08701 45.38059 33848 ft 443 kts 316°
2026-04-23 10:22 8.13219 45.33882 33856 ft 443 kts 316°
2026-04-23 10:22 8.17774 45.29679 33856 ft 443 kts 316°
2026-04-23 10:23 8.22332 45.25490 33861 ft 443 kts 316°
2026-04-23 10:23 8.26879 45.21303 33857 ft 443 kts 316°
2026-04-23 10:24 8.30663 45.17811 33855 ft 442 kts 316°
2026-04-23 10:24 8.35958 45.12939 33853 ft 443 kts 316°
2026-04-23 10:25 8.39745 45.09446 33861 ft 442 kts 316°
2026-04-23 10:25 8.44288 45.05254 33859 ft 442 kts 316°
2026-04-23 10:26 8.48835 45.01055 33857 ft 442 kts 316°
2026-04-23 10:26 8.53374 44.96847 33856 ft 442 kts 316°
2026-04-23 10:27 8.57920 44.92649 33864 ft 442 kts 316°
2026-04-23 10:27 8.62425 44.88495 33862 ft 440 kts 316°
2026-04-23 10:28 8.66943 44.84317 33857 ft 440 kts 316°
2026-04-23 10:28 8.71459 44.80132 33855 ft 440 kts 316°
2026-04-23 10:29 8.75986 44.75954 33862 ft 440 kts 316°
2026-04-23 10:29 8.80603 44.71878 33863 ft 440 kts 317°
2026-04-23 10:30 8.85212 44.67851 33858 ft 440 kts 317°
2026-04-23 10:30 8.89857 44.63796 33859 ft 440 kts 317°
2026-04-23 10:31 8.94487 44.59745 33853 ft 439 kts 318°
2026-04-23 10:31 8.99121 44.55710 33841 ft 439 kts 318°
2026-04-23 10:32 9.03748 44.51661 33844 ft 439 kts 318°
2026-04-23 10:32 9.08350 44.47643 33842 ft 439 kts 317°
2026-04-23 10:33 9.12984 44.43588 33841 ft 439 kts 317°
2026-04-23 10:33 9.17615 44.39525 33843 ft 439 kts 318°
2026-04-23 10:34 9.22209 44.35495 33844 ft 440 kts 318°
2026-04-23 10:34 9.26844 44.31433 33845 ft 440 kts 318°
2026-04-23 10:35 9.31473 44.27375 33846 ft 440 kts 317°
2026-04-23 10:35 9.36106 44.23314 33835 ft 440 kts 317°
2026-04-23 10:36 9.40740 44.19259 33834 ft 440 kts 318°
2026-04-23 10:36 9.45379 44.15192 33843 ft 440 kts 317°
2026-04-23 10:37 9.49968 44.11156 33834 ft 440 kts 318°
2026-04-23 10:37 9.55106 44.07755 33840 ft 444 kts 332°
2026-04-23 10:38 9.60714 44.05103 33825 ft 444 kts 333°
2026-04-23 10:38 9.66285 44.02466 33835 ft 444 kts 332°
2026-04-23 10:39 9.71881 43.99779 33826 ft 444 kts 332°
2026-04-23 10:39 9.77484 43.97103 33834 ft 444 kts 332°
2026-04-23 10:40 9.83075 43.94440 33832 ft 445 kts 332°
2026-04-23 10:40 9.88659 43.91774 33833 ft 445 kts 332°
2026-04-23 10:41 9.94281 43.89094 33826 ft 445 kts 332°
2026-04-23 10:41 9.99901 43.86407 33827 ft 445 kts 332°
2026-04-23 10:42 10.05473 43.83742 33816 ft 445 kts 332°
2026-04-23 10:42 10.11087 43.81047 33815 ft 445 kts 332°
2026-04-23 10:43 10.16676 43.78374 33809 ft 443 kts 332°
2026-04-23 10:43 10.22262 43.75696 33809 ft 443 kts 332°
2026-04-23 10:44 10.27812 43.73040 33802 ft 443 kts 332°
2026-04-23 10:44 10.33390 43.70363 33800 ft 443 kts 332°
2026-04-23 10:45 10.38971 43.67677 33789 ft 442 kts 331°
2026-04-23 10:45 10.44528 43.65011 33789 ft 441 kts 332°
2026-04-23 10:46 10.50095 43.62349 33783 ft 441 kts 332°
2026-04-23 10:46 10.55610 43.59675 33784 ft 441 kts 330°
2026-04-23 10:47 10.61096 43.56871 33783 ft 441 kts 330°
2026-04-23 10:47 10.66585 43.54064 33773 ft 441 kts 330°
2026-04-23 10:48 10.72029 43.51278 33774 ft 441 kts 330°
2026-04-23 10:48 10.77525 43.48482 33774 ft 441 kts 330°
2026-04-23 10:49 10.82984 43.45690 33775 ft 441 kts 330°
2026-04-23 10:49 10.88469 43.42875 33778 ft 441 kts 330°
2026-04-23 10:50 10.93945 43.40066 33774 ft 441 kts 330°
2026-04-23 10:50 10.99430 43.37267 33794 ft 440 kts 330°
2026-04-23 10:51 11.04868 43.34481 33784 ft 440 kts 330°
2026-04-23 10:51 11.10346 43.31675 33787 ft 440 kts 330°
2026-04-23 10:52 11.15817 43.28865 33784 ft 440 kts 329°
2026-04-23 10:52 11.21287 43.26059 33785 ft 440 kts 330°
2026-04-23 10:53 11.26753 43.23242 33789 ft 440 kts 330°
2026-04-23 10:53 11.32234 43.20428 33790 ft 441 kts 330°
2026-04-23 10:54 11.37730 43.17649 33792 ft 441 kts 331°
2026-04-23 10:54 11.43243 43.14978 33795 ft 441 kts 331°
2026-04-23 10:55 11.48804 43.12283 33795 ft 441 kts 331°
2026-04-23 10:55 11.54365 43.09629 33796 ft 442 kts 334°
2026-04-23 10:56 11.60253 43.07751 33807 ft 447 kts 340°
2026-04-23 10:56 11.66248 43.06032 33804 ft 447 kts 340°
2026-04-23 10:57 11.72246 43.04293 33802 ft 447 kts 340°
2026-04-23 10:57 11.78231 43.02551 33801 ft 447 kts 340°
2026-04-23 10:58 11.84216 43.00804 33815 ft 447 kts 340°
2026-04-23 10:58 11.90178 42.99070 33818 ft 447 kts 340°
2026-04-23 10:59 11.96171 42.97318 33819 ft 448 kts 340°
2026-04-23 10:59 12.02171 42.95572 33815 ft 448 kts 340°
2026-04-23 11:00 12.08169 42.93824 33816 ft 447 kts 340°
2026-04-23 11:00 12.14161 42.92048 33813 ft 447 kts 340°
2026-04-23 11:01 12.20114 42.90309 33807 ft 448 kts 340°
2026-04-23 11:01 12.26122 42.88556 33799 ft 448 kts 340°
2026-04-23 11:02 12.32100 42.86815 33800 ft 448 kts 340°
2026-04-23 11:02 12.38095 42.85068 33784 ft 448 kts 340°
2026-04-23 11:03 12.44099 42.83314 33791 ft 447 kts 340°
2026-04-23 11:03 12.50079 42.81564 33781 ft 447 kts 340°
2026-04-23 11:04 12.56036 42.79812 33778 ft 447 kts 340°
2026-04-23 11:04 12.61991 42.77961 33768 ft 446 kts 338°
2026-04-23 11:05 12.67871 42.76031 33771 ft 446 kts 338°
2026-04-23 11:05 12.73816 42.74082 33768 ft 449 kts 339°
2026-04-23 11:06 12.82779 42.71169 33755 ft 450 kts 339°
2026-04-23 11:07 12.88761 42.69209 33755 ft 450 kts 339°
2026-04-23 11:07 12.94692 42.67264 33750 ft 450 kts 339°
2026-04-23 11:08 13.00677 42.65301 33755 ft 453 kts 339°
2026-04-23 11:08 13.06594 42.63088 33748 ft 449 kts 329°
2026-04-23 11:09 13.11584 42.59408 33745 ft 443 kts 318°
2026-04-23 11:09 13.16382 42.55443 33746 ft 442 kts 319°
2026-04-23 11:10 13.21211 42.51531 33741 ft 442 kts 319°
2026-04-23 11:10 13.26031 42.47617 33739 ft 442 kts 319°
2026-04-23 11:11 13.30866 42.43700 33738 ft 441 kts 319°
2026-04-23 11:11 13.35670 42.39795 33734 ft 440 kts 319°
2026-04-23 11:12 13.40434 42.35916 33738 ft 440 kts 319°
2026-04-23 11:12 13.45228 42.32000 33738 ft 440 kts 319°
2026-04-23 11:13 13.49218 42.28755 33737 ft 440 kts 319°
2026-04-23 11:13 13.54017 42.24859 33737 ft 440 kts 319°
2026-04-23 11:14 13.58815 42.20938 33739 ft 440 kts 318°
2026-04-23 11:14 13.63616 42.17025 33735 ft 439 kts 319°
2026-04-23 11:15 13.68367 42.13134 33737 ft 439 kts 318°
2026-04-23 11:15 13.73130 42.09192 33735 ft 439 kts 319°
2026-04-23 11:16 13.77878 42.05289 33733 ft 439 kts 318°
2026-04-23 11:16 13.82631 42.01346 33733 ft 438 kts 318°
2026-04-23 11:17 13.87380 41.97386 33741 ft 439 kts 318°
2026-04-23 11:17 13.92147 41.93437 33741 ft 439 kts 319°
2026-04-23 11:18 13.96884 41.89533 33734 ft 438 kts 319°
2026-04-23 11:18 14.01660 41.85617 33734 ft 438 kts 318°
2026-04-23 11:19 14.06418 41.81681 33734 ft 438 kts 319°
2026-04-23 11:19 14.11161 41.77775 33735 ft 438 kts 318°
2026-04-23 11:20 14.15903 41.73840 33734 ft 437 kts 318°
2026-04-23 11:20 14.20665 41.69920 33735 ft 437 kts 319°
2026-04-23 11:21 14.25424 41.66009 33747 ft 437 kts 319°
2026-04-23 11:21 14.30177 41.62106 33732 ft 436 kts 318°
2026-04-23 11:22 14.34869 41.58224 33736 ft 435 kts 318°
2026-04-23 11:22 14.39598 41.54304 33741 ft 435 kts 318°
2026-04-23 11:23 14.44312 41.50385 33737 ft 435 kts 318°
2026-04-23 11:23 14.49029 41.46466 33745 ft 435 kts 317°
2026-04-23 11:24 14.53726 41.42529 33737 ft 435 kts 318°
2026-04-23 11:24 14.58421 41.38654 33747 ft 435 kts 318°
2026-04-23 11:25 14.63127 41.34753 33742 ft 434 kts 318°
2026-04-23 11:25 14.67823 41.30847 33745 ft 433 kts 317°
2026-04-23 11:26 14.72516 41.26936 33737 ft 433 kts 318°
2026-04-23 11:26 14.77233 41.23051 33736 ft 433 kts 318°
2026-04-23 11:27 14.81897 41.19160 33741 ft 433 kts 317°
2026-04-23 11:27 14.86564 41.15164 33741 ft 433 kts 317°
2026-04-23 11:28 14.91215 41.11272 33762 ft 432 kts 317°
2026-04-23 11:28 14.95895 41.07364 33746 ft 432 kts 317°
2026-04-23 11:29 15.00620 41.03486 33755 ft 434 kts 321°
2026-04-23 11:29 15.03269 41.01952 33739 ft 441 kts 332°
2026-04-23 11:29 15.06200 41.01014 33748 ft 448 kts 343°
2026-04-23 11:30 15.12344 40.99813 33752 ft 449 kts 344°
2026-04-23 11:30 15.18474 40.98592 33760 ft 448 kts 343°
2026-04-23 11:31 15.24604 40.97338 33743 ft 449 kts 343°
2026-04-23 11:31 15.30740 40.96089 33756 ft 449 kts 343°
2026-04-23 11:32 15.36881 40.94837 33750 ft 449 kts 343°
2026-04-23 11:32 15.43025 40.93568 33750 ft 449 kts 343°
2026-04-23 11:33 15.49129 40.92304 33761 ft 449 kts 343°
2026-04-23 11:33 15.55265 40.91037 33759 ft 450 kts 343°
2026-04-23 11:34 15.61404 40.89763 33752 ft 449 kts 343°
2026-04-23 11:34 15.67538 40.88483 33760 ft 449 kts 343°
2026-04-23 11:35 15.73673 40.87215 33756 ft 449 kts 343°
2026-04-23 11:35 15.79769 40.85952 33760 ft 449 kts 343°
2026-04-23 11:36 15.85904 40.84673 33763 ft 449 kts 343°
2026-04-23 11:36 15.92041 40.83393 33761 ft 449 kts 343°
2026-04-23 11:37 15.98165 40.82118 33761 ft 449 kts 343°
2026-04-23 11:37 16.04269 40.80861 33763 ft 449 kts 343°
2026-04-23 11:38 16.10407 40.79580 33762 ft 450 kts 342°
2026-04-23 11:38 16.16551 40.78277 33761 ft 450 kts 342°
2026-04-23 11:39 16.22700 40.76993 33764 ft 450 kts 343°
2026-04-23 11:39 16.28798 40.75695 33764 ft 450 kts 342°
2026-04-23 11:40 16.34958 40.74407 33768 ft 450 kts 343°
2026-04-23 11:40 16.41114 40.73136 33761 ft 451 kts 343°
2026-04-23 11:41 16.47230 40.71878 33764 ft 451 kts 343°
2026-04-23 11:41 16.53394 40.70598 33764 ft 450 kts 342°
2026-04-23 11:42 16.59514 40.69302 33761 ft 450 kts 342°
2026-04-23 11:42 16.65674 40.68015 33761 ft 450 kts 343°
2026-04-23 11:43 16.71827 40.66739 33761 ft 450 kts 343°
2026-04-23 11:43 16.77946 40.65467 33761 ft 450 kts 342°
2026-04-23 11:44 16.84102 40.64173 33761 ft 450 kts 342°
2026-04-23 11:44 16.90267 40.62875 33766 ft 451 kts 342°
2026-04-23 11:45 16.96387 40.61594 33768 ft 451 kts 342°
2026-04-23 11:45 17.02544 40.60299 33765 ft 451 kts 342°
2026-04-23 11:46 17.08710 40.59004 33762 ft 451 kts 342°
2026-04-23 11:46 17.14880 40.57705 33763 ft 451 kts 342°
2026-04-23 11:47 17.21001 40.56416 33772 ft 452 kts 342°
2026-04-23 11:47 17.27163 40.55117 33766 ft 452 kts 342°
2026-04-23 11:48 17.33309 40.53692 33762 ft 446 kts 336°
2026-04-23 11:48 17.39064 40.51349 33767 ft 443 kts 332°
2026-04-23 11:49 17.44760 40.48960 33761 ft 443 kts 333°
2026-04-23 11:49 17.50501 40.46564 33770 ft 444 kts 332°
2026-04-23 11:50 17.56244 40.44157 33767 ft 444 kts 332°
2026-04-23 11:50 17.61987 40.41751 33765 ft 444 kts 332°
2026-04-23 11:51 17.67693 40.39362 33769 ft 444 kts 332°
2026-04-23 11:51 17.73441 40.36952 33767 ft 444 kts 332°
2026-04-23 11:52 17.79194 40.34530 33770 ft 445 kts 332°
2026-04-23 11:52 17.84957 40.32112 33768 ft 445 kts 332°
2026-04-23 11:53 17.90685 40.29705 33767 ft 445 kts 332°
2026-04-23 11:53 17.96444 40.27293 33767 ft 445 kts 332°
2026-04-23 11:54 18.02206 40.24867 33770 ft 445 kts 332°
2026-04-23 11:54 18.07924 40.22467 33765 ft 445 kts 332°
2026-04-23 11:55 18.13676 40.20031 33764 ft 445 kts 332°
2026-04-23 11:55 18.19436 40.17599 33763 ft 445 kts 332°
2026-04-23 11:56 18.25170 40.15129 33766 ft 445 kts 332°
2026-04-23 11:56 18.30887 40.12701 33766 ft 445 kts 332°
2026-04-23 11:57 18.36641 40.10218 33767 ft 447 kts 333°
2026-04-23 11:57 18.42425 40.07780 33765 ft 447 kts 333°
2026-04-23 11:58 18.48177 40.05366 33763 ft 447 kts 332°
2026-04-23 11:58 18.53963 40.02889 33770 ft 447 kts 333°
2026-04-23 11:59 18.59764 40.00471 33766 ft 449 kts 334°
2026-04-23 11:59 18.65556 39.98063 33769 ft 449 kts 332°
2026-04-23 12:00 18.71378 39.95602 33767 ft 449 kts 332°
2026-04-23 12:00 18.76209 39.93560 33767 ft 450 kts 332°
2026-04-23 12:01 18.82016 39.91095 33769 ft 450 kts 332°
2026-04-23 12:01 18.87789 39.88635 33764 ft 450 kts 332°
2026-04-23 12:02 18.93597 39.86155 33777 ft 448 kts 332°
2026-04-23 12:02 18.99345 39.83708 33762 ft 444 kts 332°
2026-04-23 12:03 19.05071 39.81267 33771 ft 444 kts 332°
2026-04-23 12:03 19.10797 39.78823 33767 ft 442 kts 332°
2026-04-23 12:04 19.16506 39.76380 33766 ft 442 kts 332°
2026-04-23 12:04 19.22195 39.73958 33767 ft 442 kts 332°
2026-04-23 12:05 19.27889 39.71527 33766 ft 441 kts 332°
2026-04-23 12:05 19.33581 39.69091 33765 ft 441 kts 332°
2026-04-23 12:06 19.39265 39.66642 33764 ft 441 kts 332°
2026-04-23 12:06 19.47757 39.63002 33758 ft 440 kts 332°
2026-04-23 12:07 19.53445 39.60557 33761 ft 441 kts 332°
2026-04-23 12:07 19.59137 39.58122 33762 ft 441 kts 332°
2026-04-23 12:08 19.64812 39.55691 33761 ft 439 kts 332°
2026-04-23 12:08 19.70477 39.53234 33759 ft 439 kts 332°
2026-04-23 12:09 19.76128 39.50819 33761 ft 439 kts 332°
2026-04-23 12:09 19.81796 39.48383 33772 ft 440 kts 333°
2026-04-23 12:10 19.87483 39.45922 33759 ft 440 kts 333°
2026-04-23 12:10 19.93135 39.43482 33755 ft 440 kts 333°
2026-04-23 12:11 19.98825 39.41040 33758 ft 440 kts 333°
2026-04-23 12:11 20.04504 39.38572 33757 ft 440 kts 333°
2026-04-23 12:12 20.10188 39.36114 33773 ft 440 kts 333°
2026-04-23 12:12 20.15901 39.33653 33763 ft 446 kts 332°
2026-04-23 12:13 20.21671 39.31151 33756 ft 448 kts 332°
2026-04-23 12:13 20.27339 39.28546 33755 ft 441 kts 323°
2026-04-23 12:14 20.29728 39.26558 33763 ft 432 kts 311°
2026-04-23 12:14 20.31804 39.24247 33765 ft 431 kts 308°
2026-04-23 12:14 20.35881 39.19569 33757 ft 431 kts 308°
2026-04-23 12:15 20.39998 39.14900 33752 ft 431 kts 309°
2026-04-23 12:15 20.44135 39.10258 33759 ft 432 kts 308°
2026-04-23 12:16 20.48263 39.05633 33752 ft 432 kts 308°
2026-04-23 12:16 20.52396 39.00971 33769 ft 432 kts 308°
2026-04-23 12:17 20.56522 38.96317 33762 ft 432 kts 308°
2026-04-23 12:17 20.60672 38.91663 33764 ft 432 kts 308°
2026-04-23 12:18 20.64814 38.87016 33753 ft 429 kts 307°
2026-04-23 12:18 20.68912 38.82391 33750 ft 428 kts 307°
2026-04-23 12:19 20.73001 38.77764 33756 ft 428 kts 307°
2026-04-23 12:19 20.77070 38.73163 33750 ft 428 kts 307°
2026-04-23 12:20 20.81161 38.68534 33761 ft 425 kts 307°
2026-04-23 12:20 20.85201 38.63960 33758 ft 426 kts 308°
2026-04-23 12:21 20.89276 38.59329 33756 ft 428 kts 308°
2026-04-23 12:21 20.93377 38.54696 33755 ft 428 kts 308°
2026-04-23 12:22 20.97441 38.50093 33752 ft 428 kts 308°
2026-04-23 12:22 21.01527 38.45453 33758 ft 428 kts 308°
2026-04-23 12:23 21.05587 38.40784 33756 ft 428 kts 308°
2026-04-23 12:23 21.09696 38.36142 33759 ft 428 kts 308°
2026-04-23 12:24 21.13781 38.31494 33758 ft 429 kts 308°
2026-04-23 12:24 21.17867 38.26840 33766 ft 429 kts 307°
2026-04-23 12:25 21.21897 38.22113 33754 ft 432 kts 307°
2026-04-23 12:25 21.26041 38.17398 33768 ft 438 kts 308°
2026-04-23 12:26 21.28155 38.15045 34018 ft 439 kts 307°
2026-04-23 12:26 21.30252 38.12684 34441 ft 435 kts 307°
2026-04-23 12:26 21.32319 38.10332 34904 ft 429 kts 306°
2026-04-23 12:26 21.34320 38.08026 35364 ft 425 kts 306°
2026-04-23 12:27 21.36346 38.05720 35681 ft 422 kts 306°
2026-04-23 12:27 21.38356 38.03429 35769 ft 419 kts 306°
2026-04-23 12:27 21.42312 37.98868 35777 ft 416 kts 305°
2026-04-23 12:28 21.46257 37.94351 35768 ft 416 kts 305°
2026-04-23 12:28 21.50222 37.89810 35767 ft 416 kts 305°
2026-04-23 12:29 21.54157 37.85300 35767 ft 416 kts 305°
2026-04-23 12:29 21.58086 37.80771 35768 ft 413 kts 305°
2026-04-23 12:30 21.62005 37.76256 35768 ft 413 kts 305°
2026-04-23 12:30 21.65930 37.71750 35767 ft 413 kts 305°
2026-04-23 12:31 21.69813 37.67266 35770 ft 411 kts 305°
2026-04-23 12:31 21.73721 37.62761 35765 ft 411 kts 305°
2026-04-23 12:32 21.77587 37.58239 35768 ft 411 kts 304°
2026-04-23 12:32 21.81454 37.53736 35771 ft 411 kts 304°
2026-04-23 12:33 21.85334 37.49216 35773 ft 411 kts 305°
2026-04-23 12:33 21.89224 37.44714 35772 ft 410 kts 305°
2026-04-23 12:34 21.93095 37.40211 35784 ft 412 kts 305°
2026-04-23 12:34 21.97004 37.35670 35772 ft 414 kts 305°
2026-04-23 12:35 22.00935 37.31112 35773 ft 415 kts 305°
2026-04-23 12:35 22.04844 37.26579 35773 ft 415 kts 305°
2026-04-23 12:36 22.08774 37.22006 35775 ft 416 kts 305°
2026-04-23 12:36 22.12729 37.17421 35771 ft 417 kts 305°
2026-04-23 12:37 22.16682 37.12815 35769 ft 417 kts 305°
2026-04-23 12:37 22.20595 37.08248 35769 ft 417 kts 305°
2026-04-23 12:38 22.24566 37.03644 35771 ft 417 kts 305°
2026-04-23 12:38 22.28527 36.99055 35784 ft 417 kts 304°
2026-04-23 12:39 22.32426 36.94467 35791 ft 417 kts 304°
2026-04-23 12:39 22.36351 36.89846 35781 ft 417 kts 304°
2026-04-23 12:40 22.40333 36.85254 35776 ft 418 kts 304°
2026-04-23 12:40 22.44278 36.80668 35775 ft 418 kts 304°
2026-04-23 12:41 22.48206 36.76046 35771 ft 417 kts 304°
2026-04-23 12:41 22.52156 36.71435 35776 ft 418 kts 304°
2026-04-23 12:42 22.56099 36.66812 35776 ft 417 kts 304°
2026-04-23 12:42 22.60005 36.62211 35773 ft 417 kts 303°
2026-04-23 12:43 22.63931 36.57586 35773 ft 418 kts 304°
2026-04-23 12:43 22.67871 36.52943 35798 ft 417 kts 303°
2026-04-23 12:44 22.71803 36.48307 35783 ft 417 kts 303°
2026-04-23 12:44 22.75709 36.43704 35757 ft 418 kts 303°
2026-04-23 12:45 22.79645 36.39058 35757 ft 418 kts 303°
2026-04-23 12:45 22.83565 36.34413 35755 ft 418 kts 303°
2026-04-23 12:46 22.87497 36.29752 35771 ft 418 kts 303°
2026-04-23 12:46 22.91424 36.25108 35771 ft 418 kts 303°
2026-04-23 12:47 22.95327 36.20477 35776 ft 418 kts 303°
2026-04-23 12:47 22.98578 36.16604 35762 ft 418 kts 303°
2026-04-23 12:48 23.02512 36.11938 35755 ft 418 kts 303°
2026-04-23 12:48 23.07061 36.06514 35769 ft 418 kts 303°
2026-04-23 12:49 23.10330 36.02637 35766 ft 418 kts 303°
2026-04-23 12:49 23.14249 35.97963 35764 ft 418 kts 303°
2026-04-23 12:50 23.18169 35.93294 35762 ft 418 kts 303°
2026-04-23 12:50 23.22069 35.88645 35764 ft 417 kts 303°
2026-04-23 12:51 23.25980 35.83972 35762 ft 418 kts 303°
2026-04-23 12:51 23.29894 35.79285 35759 ft 418 kts 303°
2026-04-23 12:52 23.33811 35.74599 35765 ft 418 kts 303°
2026-04-23 12:52 23.37697 35.69941 35761 ft 417 kts 303°
2026-04-23 12:53 23.41610 35.65258 35764 ft 418 kts 303°
2026-04-23 12:53 23.45494 35.60603 35771 ft 416 kts 302°
2026-04-23 12:54 23.49387 35.55935 35764 ft 416 kts 302°
2026-04-23 12:54 23.53271 35.51263 35762 ft 416 kts 302°
2026-04-23 12:55 23.57148 35.46580 35764 ft 415 kts 302°
2026-04-23 12:55 23.61004 35.41927 35771 ft 415 kts 302°
2026-04-23 12:56 23.64875 35.37256 35783 ft 414 kts 302°
2026-04-23 12:56 23.68741 35.32576 35767 ft 415 kts 302°
2026-04-23 12:57 23.72613 35.27887 35762 ft 415 kts 302°
2026-04-23 12:57 23.76464 35.23235 35762 ft 415 kts 302°
2026-04-23 12:58 23.80322 35.18548 35771 ft 415 kts 302°
2026-04-23 12:58 23.84189 35.13857 35769 ft 414 kts 302°
2026-04-23 12:59 23.88061 35.09188 35767 ft 414 kts 302°
2026-04-23 12:59 23.91933 35.04511 35774 ft 414 kts 302°
2026-04-23 13:00 23.95785 34.99835 35767 ft 414 kts 302°
2026-04-23 13:00 23.99619 34.95179 35777 ft 414 kts 302°
2026-04-23 13:01 24.03474 34.90475 35772 ft 415 kts 302°
2026-04-23 13:01 24.07336 34.85776 35774 ft 415 kts 302°
2026-04-23 13:02 24.11188 34.81066 35771 ft 415 kts 302°
2026-04-23 13:02 24.15047 34.76358 35775 ft 414 kts 302°
2026-04-23 13:03 24.18875 34.71676 35784 ft 413 kts 302°
2026-04-23 13:03 24.22706 34.66975 35788 ft 413 kts 302°
2026-04-23 13:04 24.26540 34.62275 35773 ft 413 kts 302°
2026-04-23 13:04 24.30353 34.57609 35769 ft 413 kts 302°
2026-04-23 13:05 24.34189 34.52913 35769 ft 413 kts 302°
2026-04-23 13:05 24.38006 34.48213 35770 ft 412 kts 302°
2026-04-23 13:06 24.43747 34.41142 35768 ft 413 kts 302°
2026-04-23 13:07 24.47573 34.36437 35766 ft 413 kts 302°
2026-04-23 13:07 24.51394 34.31709 35767 ft 413 kts 301°
2026-04-23 13:08 24.55181 34.27010 35769 ft 413 kts 302°
2026-04-23 13:08 24.59001 34.22275 35802 ft 414 kts 302°
2026-04-23 13:09 24.62834 34.17541 35783 ft 416 kts 302°
2026-04-23 13:09 24.66684 34.12783 35773 ft 416 kts 302°
2026-04-23 13:10 24.70508 34.08053 35784 ft 416 kts 302°
2026-04-23 13:10 24.74340 34.03286 35779 ft 416 kts 302°
2026-04-23 13:11 24.78171 33.98523 35786 ft 416 kts 302°
2026-04-23 13:11 24.82007 33.93762 35807 ft 417 kts 302°
2026-04-23 13:12 24.85886 33.88967 35801 ft 418 kts 302°
2026-04-23 13:12 24.89733 33.84209 35797 ft 418 kts 302°
2026-04-23 13:13 24.93594 33.79394 35806 ft 418 kts 302°
2026-04-23 13:13 24.97460 33.74595 35826 ft 418 kts 302°
2026-04-23 13:14 25.01288 33.69811 35807 ft 418 kts 301°
2026-04-23 13:14 25.05129 33.64994 35808 ft 418 kts 301°
2026-04-23 13:15 25.08975 33.60177 35802 ft 418 kts 301°
2026-04-23 13:15 25.12827 33.55351 35803 ft 418 kts 301°
2026-04-23 13:16 25.16680 33.50515 35809 ft 418 kts 301°
2026-04-23 13:16 25.20500 33.45718 35804 ft 418 kts 301°
2026-04-23 13:17 25.24359 33.40896 35806 ft 418 kts 301°
2026-04-23 13:17 25.28177 33.36079 35807 ft 418 kts 301°
2026-04-23 13:18 25.32033 33.31229 35806 ft 418 kts 301°
2026-04-23 13:18 25.35866 33.26393 35829 ft 417 kts 301°
2026-04-23 13:19 25.39656 33.21604 35815 ft 416 kts 301°
2026-04-23 13:19 25.43473 33.16782 35805 ft 416 kts 301°
2026-04-23 13:20 25.47299 33.11949 35811 ft 417 kts 301°
2026-04-23 13:20 25.51129 33.07101 35810 ft 417 kts 301°
2026-04-23 13:21 25.54924 33.02285 35802 ft 416 kts 300°
2026-04-23 13:21 25.58718 32.97433 35801 ft 417 kts 300°
2026-04-23 13:22 25.62520 32.92589 35803 ft 417 kts 301°
2026-04-23 13:22 25.66365 32.87741 35818 ft 417 kts 301°
2026-04-23 13:23 25.70161 32.82920 35803 ft 417 kts 301°
2026-04-23 13:23 25.73963 32.78078 35835 ft 416 kts 301°
2026-04-23 13:24 25.78207 32.73607 35814 ft 423 kts 307°
2026-04-23 13:24 25.82618 32.69275 35814 ft 423 kts 307°
2026-04-23 13:25 25.86990 32.64948 35807 ft 423 kts 307°
2026-04-23 13:25 25.91382 32.60597 35820 ft 422 kts 307°
2026-04-23 13:26 25.95769 32.56252 35808 ft 422 kts 307°
2026-04-23 13:26 26.00136 32.51933 35791 ft 422 kts 307°
2026-04-23 13:27 26.04529 32.47578 35785 ft 422 kts 307°
2026-04-23 13:27 26.08915 32.43233 35810 ft 422 kts 307°
2026-04-23 13:28 26.13293 32.38870 35794 ft 422 kts 307°
2026-04-23 13:28 26.17643 32.34556 35810 ft 421 kts 307°
2026-04-23 13:29 26.21988 32.30227 35790 ft 418 kts 307°
2026-04-23 13:29 26.26337 32.25895 35790 ft 419 kts 307°
2026-04-23 13:30 26.30710 32.21554 35794 ft 420 kts 307°
2026-04-23 13:30 26.35037 32.17240 35789 ft 420 kts 307°
2026-04-23 13:31 26.39392 32.12883 35791 ft 420 kts 307°
2026-04-23 13:31 26.43753 32.08529 35814 ft 418 kts 307°
2026-04-23 13:32 26.48069 32.04204 35803 ft 416 kts 307°
2026-04-23 13:32 26.52355 31.99899 35799 ft 417 kts 308°
2026-04-23 13:33 26.56672 31.95568 35801 ft 416 kts 307°
2026-04-23 13:33 26.60992 31.91242 35801 ft 416 kts 307°
2026-04-23 13:34 26.65304 31.86911 35799 ft 416 kts 307°
2026-04-23 13:34 26.69613 31.82571 35817 ft 416 kts 307°
2026-04-23 13:35 26.73887 31.78251 35833 ft 418 kts 308°
2026-04-23 13:35 26.78210 31.73899 35849 ft 419 kts 308°
2026-04-23 13:36 26.81805 31.70260 35845 ft 419 kts 308°
2026-04-23 13:36 26.86130 31.65887 35855 ft 419 kts 308°
2026-04-23 13:37 26.90468 31.61510 35875 ft 419 kts 308°
2026-04-23 13:37 26.94753 31.57157 35876 ft 419 kts 308°
2026-04-23 13:38 26.99082 31.52769 35879 ft 419 kts 308°
2026-04-23 13:38 27.03408 31.48365 35896 ft 419 kts 309°
2026-04-23 13:39 27.07743 31.43970 35890 ft 419 kts 309°
2026-04-23 13:39 27.12058 31.39556 35942 ft 419 kts 309°
2026-04-23 13:40 27.16359 31.35189 35925 ft 419 kts 309°
2026-04-23 13:40 27.20684 31.30795 35926 ft 418 kts 309°
2026-04-23 13:41 27.24985 31.26375 35943 ft 418 kts 309°
2026-04-23 13:41 27.29279 31.22005 35949 ft 419 kts 309°
2026-04-23 13:42 27.33599 31.17596 35951 ft 419 kts 309°
2026-04-23 13:42 27.37907 31.13192 35951 ft 418 kts 309°
2026-04-23 13:43 27.42208 31.08772 35953 ft 418 kts 309°
2026-04-23 13:43 27.46520 31.04357 35995 ft 418 kts 309°
2026-04-23 13:44 27.50803 30.99959 35963 ft 419 kts 310°
2026-04-23 13:44 27.55098 30.95513 35959 ft 419 kts 310°
2026-04-23 13:45 27.59396 30.91065 35953 ft 418 kts 310°
2026-04-23 13:45 27.63658 30.86655 35951 ft 418 kts 310°
2026-04-23 13:46 27.67962 30.82222 35951 ft 419 kts 310°
2026-04-23 13:46 27.72259 30.77783 35943 ft 419 kts 310°
2026-04-23 13:47 27.76556 30.73324 35943 ft 418 kts 310°
2026-04-23 13:47 27.80845 30.68865 35948 ft 419 kts 310°
2026-04-23 13:48 27.85125 30.64416 35940 ft 418 kts 310°
2026-04-23 13:48 27.89401 30.59990 35939 ft 419 kts 311°
2026-04-23 13:49 27.93745 30.55529 35940 ft 419 kts 311°
2026-04-23 13:49 27.98017 30.51106 35935 ft 419 kts 310°
2026-04-23 13:50 28.02305 30.46628 35934 ft 419 kts 310°
2026-04-23 13:50 28.06596 30.42153 35932 ft 419 kts 310°
2026-04-23 13:51 28.10858 30.37717 35934 ft 418 kts 310°
2026-04-23 13:51 28.15130 30.33244 35927 ft 418 kts 310°